Temp
20 21 21 21 21 22 23 24 24 24 25 26 27 27 28 29 30 29 29 34 33 31 29 26 25 25 24 25 26 28 26 27 29 30 31 31 31 30 30 29 29 29 26 26 25
19 20 21 21 21 22 23 24 24 24 24 25 26 27 28 29 29 26 34 34 33 32 29 26 25 25 24 26 27 26 24 28 29 30 30 32 32 30 30 29 28 26 26 25 23
19 19 21 21 21 21 22 23 24 24 25 26 26 27 27 28 26 31 33 33 33 32 32 31 30 27 27 27 28 27 28 29 31 30 30 30 32 31 28 28 27 25 24 24 23
18 19 20 21 21 21 22 23 24 25 25 26 26 27 27 26 31 33 33 32 32 31 31 31 30 29 30 31 31 30 29 31 32 33 31 30 30 31 29 30 29 26 25 24 23
17 19 20 21 20 21 23 24 25 25 26 26 26 27 27 25 28 33 32 32 31 30 30 30 30 31 31 31 31 30 32 31 32 30 30 31 31 31 30 31 28 26 25 24 24
17 18 19 20 21 22 23 24 25 26 26 27 27 26 25 27 32 32 31 31 31 30 30 30 31 30 31 30 31 32 31 31 31 31 31 30 31 31 31 28 27 26 25 24 23
16 18 19 19 20 21 23 25 25 26 27 27 27 25 24 26 32 31 31 31 32 32 30 31 32 32 31 31 31 31 32 30 32 32 32 30 31 30 28 28 27 26 24 23 23
16 17 18 19 20 21 23 25 26 27 28 28 27 24 24 32 32 31 31 32 32 32 32 32 32 31 31 31 30 30 29 29 32 33 32 32 30 30 27 27 26 27 24 23 22
15 16 18 19 20 21 24 25 26 26 26 25 24 24 25 31 31 33 33 32 32 32 32 31 31 29 29 28 27 26 29 30 30 31 32 31 31 31 27 27 26 27 23 23 22
15 16 18 19 20 22 24 26 25 24 23 23 23 25 28 31 32 33 33 31 31 31 31 30 25 26 24 25 27 29 29 28 29 31 32 31 29 30 27 27 27 26 23 22 22
15 16 17 19 20 22 24 25 20 22 23 25 27 26 27 31 32 32 33 31 32 30 30 28 27 28 29 27 28 30 29 28 30 31 31 30 29 29 28 27 26 25 23 21 22
15 15 17 18 19 21 22 20 20 20 19 22 23 24 27 29 28 29 32 32 30 29 29 27 27 28 29 29 29 28 28 27 29 30 30 31 30 28 27 27 27 26 23 21 21
14 15 17 18 20 20 19 21 21 20 20 23 24 25 27 28 27 29 30 30 31 30 28 27 29 30 30 30 29 27 28 28 29 29 30 30 28 27 28 25 25 24 22 21 21
14 15 16 18 19 18 19 21 22 21 20 24 25 26 27 26 29 29 32 31 30 29 27 27 29 30 30 29 27 28 27 30 30 29 29 29 27 27 23 23 22 22 21 21 21
14 15 16 16 15 15 22 22 22 22 22 28 28 29 27 29 31 31 30 31 29 29 28 28 30 31 31 30 29 29 31 29 30 28 28 28 27 27 25 22 23 22 22 22 21
14 15 15 15 14 20 21 22 22 21 21 26 28 29 29 29 30 31 31 30 29 30 29 28 29 31 30 32 30 31 30 25 22 23 25 28 27 26 24 24 22 21 22 23 23
15 16 14 13 16 21 21 20 20 20 24 27 28 27 28 29 29 31 29 28 27 27 27 28 29 30 31 32 30 28 25 24 27 25 25 25 26 25 22 23 22 21 21 22 24
15 17 18 18 19 20 19 19 21 22 22 24 26 25 28 27 29 29 28 28 28 26 23 26 27 29 30 30 30 30 26 24 28 25 26 25 27 26 23 23 22 21 23 24 24
16 16 15 20 20 17 16 18 19 20 24 24 25 25 25 27 28 28 27 26 27 25 27 24 26 28 30 31 30 29 27 26 22 21 24 24 24 24 23 22 21 21 22 22 23
14 12 14 18 18 17 16 17 19 21 24 24 25 26 25 25 27 26 28 29 29 26 27 27 27 28 31 31 29 29 26 26 21 27 27 24 26 24 22 22 22 22 22 22 23
12 12 17 16 18 14 16 15 20 21 24 25 25 25 25 26 26 27 28 29 28 28 25 24 25 28 31 30 28 27 26 22 21 21 24 24 24 22 24 23 22 22 23 22 22
9 15 16 16 15 10 16 18 21 23 24 24 24 24 24 26 26 28 28 29 26 27 26 25 22 25 27 29 28 29 28 23 23 26 20 22 24 25 22 22 22 23 23 22 22
7 9 15 16 16 15 16 20 21 23 23 24 23 23 24 25 26 27 28 29 26 27 27 25 23 24 26 26 28 29 26 22 19 20 21 24 25 22 21 21 22 22 22 21 22
8 15 15 14 13 18 20 20 21 23 22 22 24 24 25 25 25 26 26 27 25 26 23 22 20 23 24 26 26 29 28 25 24 23 22 23 27 26 23 21 22 22 21 21 22
8 14 15 17 17 18 20 20 21 21 22 22 23 23 23 23 25 25 25 25 27 23 24 23 24 25 26 25 28 30 29 27 28 25 27 28 24 25 24 23 23 22 21 21 22
11 13 13 15 14 18 17 19 21 21 21 23 23 23 22 23 23 23 25 24 26 25 24 20 24 24 27 25 25 29 29 28 28 25 27 26 25 23 23 22 22 22 21 21 21
11 11 11 14 15 17 18 20 21 21 23 23 24 22 23 24 24 25 23 23 25 26 23 22 21 22 26 23 26 26 27 29 28 26 25 26 27 24 24 21 22 22 21 21 21
Height
819 816 814 812 810 807 805 802 799 796 792 788 783 779 775 771 768 767 766 765 766 769 773 776 780 783 785 784 780 779 808 814 798 795 782 766 770 761 758 768 766 768 772 771 776
819 816 814 811 808 806 803 800 797 793 790 787 783 778 774 769 764 762 760 761 763 766 770 774 780 782 787 784 781 791 814 799 775 772 772 763 766 767 768 771 774 775 772 772 777
819 815 812 810 808 805 801 798 795 793 789 785 782 778 774 769 767 759 758 759 761 765 768 771 773 778 786 782 781 788 800 778 763 761 757 763 763 760 768 778 768 772 774 777 781
819 815 812 809 806 804 800 797 793 790 788 785 782 778 773 771 787 757 757 759 762 765 768 770 773 782 785 785 773 788 771 768 756 748 754 761 758 763 759 758 750 760 766 773 779
818 814 810 808 805 802 798 794 791 788 785 784 782 779 774 776 768 757 758 760 762 764 766 768 774 777 784 778 774 780 765 760 752 749 749 751 757 757 756 749 753 763 772 774 777
817 813 809 806 803 798 795 792 788 785 783 781 780 779 777 786 760 758 758 760 761 763 764 766 768 769 775 776 776 764 764 760 750 750 748 758 756 753 750 751 757 762 771 776 777
816 812 808 804 800 796 792 789 786 782 779 777 777 776 777 769 757 757 758 759 760 761 761 762 762 766 769 774 763 764 773 763 755 752 756 755 766 760 748 751 759 765 772 776 778
815 811 807 803 798 794 789 785 781 778 774 773 773 775 776 756 756 754 756 756 757 758 759 760 762 764 769 764 770 778 780 797 765 755 755 760 788 750 750 751 762 764 773 776 778
815 811 806 802 797 792 787 782 777 774 772 771 773 774 774 755 754 752 752 754 754 756 757 759 761 769 772 789 803 800 807 798 786 759 760 768 782 754 750 753 762 764 771 776 780
814 809 805 800 796 790 784 778 774 773 773 773 774 780 758 755 751 750 750 751 753 755 758 761 775 786 794 803 829 811 808 800 798 772 766 773 779 762 753 756 762 764 771 777 779
813 808 804 799 795 789 783 777 779 779 774 772 769 767 757 751 750 748 748 750 752 760 778 773 792 801 790 790 790 791 799 803 777 764 769 771 772 766 754 757 761 765 772 778 780
812 807 802 797 794 789 787 786 791 795 792 766 762 761 754 754 760 745 747 756 763 780 773 788 800 782 776 780 788 794 800 800 775 762 770 770 770 764 758 759 760 767 776 779 779
811 806 800 795 791 788 788 789 789 788 794 768 756 753 748 750 756 749 744 752 764 776 780 795 782 770 777 783 792 796 798 792 787 771 764 771 784 776 762 770 765 771 778 783 789
809 804 800 793 793 790 787 788 785 784 811 781 762 746 743 743 751 733 735 746 763 778 780 783 769 772 778 785 788 798 776 771 776 788 806 778 821 785 789 785 778 781 779 781 787
807 803 800 798 795 791 787 784 782 784 835 761 752 736 739 747 737 735 731 740 764 769 775 784 772 773 778 776 773 783 762 773 774 791 794 792 812 791 785 797 785 779 774 771 767
805 801 797 796 793 787 785 783 783 817 831 773 749 749 751 744 741 735 737 735 743 762 766 771 758 761 765 757 761 757 769 789 802 812 829 800 806 804 799 791 790 786 774 759 745
801 797 794 792 789 786 785 783 817 831 780 773 764 756 755 753 748 742 750 758 771 791 791 774 769 755 750 763 760 771 797 831 826 836 836 805 811 801 789 779 777 780 774 750 747
795 790 785 783 784 785 786 798 820 798 791 768 762 762 761 754 749 748 758 768 757 770 798 800 804 764 749 759 770 770 790 828 831 845 828 808 813 792 778 771 771 768 754 753 753
789 784 780 776 777 784 793 815 807 795 776 775 766 775 772 759 754 752 761 767 758 761 785 800 793 754 747 744 752 776 793 781 824 831 831 821 801 781 777 779 780 775 767 759 760
787 783 777 774 775 782 799 806 793 779 771 772 779 771 781 771 766 763 762 749 751 750 748 766 791 760 747 742 751 760 767 798 816 824 824 825 805 803 786 781 777 774 765 763 758
787 786 776 774 779 786 804 805 786 773 769 774 776 777 774 771 765 766 761 749 743 746 751 764 775 770 750 760 769 776 782 797 806 816 827 830 817 769 763 764 770 765 757 762 758
791 789 779 780 792 805 799 789 774 770 765 767 768 773 775 768 767 762 762 751 742 743 759 756 776 788 772 750 748 752 764 782 809 805 821 819 805 751 757 755 759 756 754 758 757
801 794 782 782 797 798 789 781 775 770 769 768 770 766 765 769 773 760 755 740 742 745 749 754 781 795 784 771 752 756 762 777 792 799 814 814 799 754 757 756 752 753 754 756 755
800 793 786 784 788 784 782 782 779 761 766 762 761 759 761 766 763 763 762 747 744 745 747 752 785 783 797 776 763 760 756 768 774 798 805 800 775 753 754 756 750 746 749 754 756
801 794 788 787 786 783 781 778 779 777 762 759 761 762 765 776 767 766 761 757 745 747 749 758 776 770 763 764 753 749 753 760 762 770 776 770 778 755 747 742 742 745 751 753 754
801 797 790 787 786 780 784 778 774 769 768 760 762 753 761 770 766 771 761 763 759 752 755 764 777 770 766 763 762 754 750 755 758 767 762 765 767 745 739 737 739 735 746 750 751
799 797 797 788 785 783 781 774 768 765 753 751 749 755 760 756 749 747 751 754 752 756 765 770 778 783 781 774 765 779 760 751 752 756 763 771 752 743 740 743 737 733 737 739 740
Wind_Speed
17 18 19 20 21 21 20 19 20 20 22 23 24 26 26 26 23 10 5 4 9 16 14 23 10 11 10 3 5 2 3 3 4 3 6 1 3 3 1 6 4 6 6 7 21
19 19 20 21 23 23 21 21 22 23 23 23 24 25 26 27 20 6 5 11 10 17 16 16 6 10 3 3 2 3 3 7 7 6 6 4 4 8 3 4 2 4 7 23 22
21 21 21 22 24 25 24 23 24 23 23 23 24 24 25 22 4 4 3 14 13 17 7 6 8 7 3 3 3 4 6 5 8 10 9 5 5 4 8 5 7 10 16 15 17
21 21 22 23 25 26 26 25 24 23 22 22 22 23 23 7 1 1 4 15 12 15 7 5 4 4 3 4 5 3 10 5 7 4 5 4 6 6 8 7 8 18 21 16 15
22 22 23 24 26 26 26 26 25 24 23 22 20 18 10 5 7 6 2 13 13 10 6 3 3 4 3 3 3 5 5 3 9 9 6 6 5 7 8 0 14 16 16 16 14
24 24 24 25 27 27 27 27 26 26 25 22 18 11 2 4 2 5 4 12 9 10 5 8 5 6 4 4 1 4 6 9 7 6 3 7 4 5 3 10 16 18 17 13 13
25 26 26 27 28 29 29 28 27 27 27 22 13 3 2 13 4 6 4 6 6 7 4 6 5 2 2 5 3 5 7 8 5 4 3 7 3 8 7 14 17 17 13 12 8
24 25 27 28 29 30 29 27 27 29 24 14 4 2 6 6 8 11 10 10 11 8 12 10 8 3 3 4 8 6 4 5 6 4 5 2 6 13 8 16 15 16 12 13 8
25 26 26 29 30 30 30 27 29 17 9 2 2 3 9 8 7 4 10 9 5 6 8 7 2 2 4 4 5 6 4 3 8 4 2 4 5 7 9 11 14 15 12 12 8
26 28 27 28 29 30 29 28 7 2 4 4 3 2 6 2 3 7 4 10 5 2 2 4 5 3 3 5 3 3 4 5 6 3 2 4 9 9 9 9 13 12 11 10 10
27 28 28 28 27 28 28 6 6 3 4 6 3 4 5 7 7 3 1 5 3 6 1 2 4 3 8 6 5 3 4 6 13 3 4 6 5 10 12 6 9 10 11 11 9
27 28 29 29 28 23 9 4 8 3 8 8 9 9 18 2 5 6 6 4 4 5 2 5 3 8 2 3 4 5 5 9 12 2 3 3 6 2 3 3 3 7 7 8 6
26 28 28 28 25 6 10 4 11 3 2 8 6 7 5 13 10 10 9 4 5 4 5 7 6 5 3 4 4 4 5 6 10 7 1 3 7 6 2 9 11 14 13 7 5
25 26 27 30 4 17 6 5 20 8 5 8 5 8 5 7 5 9 14 7 2 10 7 5 4 6 4 5 7 4 7 11 1 3 3 3 4 5 8 10 14 14 15 11 13
25 25 25 23 17 7 4 18 8 3 3 5 4 1 2 7 3 4 5 5 11 7 7 8 4 3 4 5 6 9 1 2 4 3 2 3 4 6 3 6 9 14 16 14 13
25 26 26 12 13 15 13 19 3 5 7 6 4 2 3 3 5 2 4 5 4 5 2 8 3 5 7 3 7 1 4 8 5 3 3 4 4 5 1 5 4 9 10 14 16
28 26 26 20 5 7 19 3 4 4 4 5 3 4 3 4 4 4 5 6 7 5 5 4 4 4 4 4 2 5 6 3 4 4 6 3 2 7 6 7 12 16 14 17 5
30 27 18 21 11 5 5 5 4 5 7 5 4 5 2 4 1 4 5 3 1 5 4 6 8 6 4 8 7 3 7 6 4 3 5 2 4 4 3 4 9 15 18 4 4
30 15 12 9 11 10 5 3 8 7 3 6 5 6 6 4 1 2 5 7 9 9 8 6 7 4 5 3 7 3 4 3 7 3 3 3 5 6 3 4 9 12 10 7 5
19 9 7 5 9 11 4 6 4 4 3 4 2 2 4 6 5 4 3 3 2 9 4 5 3 4 4 3 4 4 5 3 3 4 4 4 3 5 8 12 14 12 15 4 5
6 4 9 6 12 5 4 7 6 6 4 2 2 4 3 4 1 2 1 3 3 1 6 6 6 6 2 2 6 2 1 6 5 4 6 3 6 7 14 16 15 13 12 7 6
6 2 6 14 3 1 3 6 3 5 3 5 2 5 4 3 4 1 1 1 6 2 5 4 5 5 11 2 2 3 4 6 5 4 1 4 6 3 6 11 10 13 7 7 7
2 3 3 4 3 2 4 4 5 3 5 3 5 7 4 4 2 3 1 3 6 4 2 4 1 1 8 6 2 4 4 5 5 3 6 6 6 1 3 8 11 11 5 6 7
1 2 2 2 0 3 0 4 4 4 7 5 6 3 2 2 2 1 4 3 8 3 5 7 3 4 7 6 4 3 3 4 6 4 5 5 6 7 7 10 11 14 4 5 6
1 3 2 2 3 2 2 3 5 3 3 6 3 7 6 5 2 1 1 5 4 8 3 4 2 1 3 4 2 2 4 4 3 5 5 4 7 9 9 13 10 3 4 6 5
1 2 4 3 3 0 3 3 5 5 6 4 4 7 7 6 8 7 3 2 3 5 4 3 2 1 3 7 6 1 3 4 2 3 1 1 5 7 6 4 7 11 8 6 7
3 3 2 3 4 2 3 3 5 4 6 6 3 4 5 5 4 2 4 1 1 1 2 3 2 3 3 3 4 4 3 3 2 2 5 3 6 6 5 7 11 9 9 10 9
Wind_Direction
357 355 354 353 353 351 348 344 343 344 343 340 341 340 339 334 334 320 237 210 180 173 154 154 153 159 186 235 216 168 36 295 249 173 255 245 163 193 15 130 171 178 151 183 162
354 352 351 349 349 347 344 341 341 341 340 339 340 339 338 334 329 273 258 190 175 175 152 157 163 160 211 233 218 118 122 237 211 191 240 193 170 161 127 135 51 63 98 133 150
353 350 346 346 346 343 340 338 336 337 336 339 338 337 335 334 331 259 345 186 183 174 165 172 132 147 211 186 202 182 206 232 263 224 229 194 161 191 141 220 195 175 148 149 158
351 346 344 343 342 339 336 333 333 331 332 335 335 334 332 342 169 7 23 178 168 172 165 161 146 164 239 238 193 250 247 216 278 243 235 211 158 167 194 208 167 163 155 157 172
349 345 342 340 338 335 331 330 329 326 328 328 331 333 344 355 255 338 105 163 170 181 188 180 173 182 248 255 279 199 278 235 267 270 215 110 184 183 228 271 123 140 157 167 177
345 345 341 337 334 331 328 327 326 323 322 322 322 327 6 311 312 338 173 166 188 198 178 179 205 198 262 249 184 269 284 288 318 331 76 128 204 154 212 122 135 150 166 171 179
345 342 338 335 334 329 325 323 323 321 317 313 305 325 124 238 217 327 246 231 228 216 205 204 199 143 330 295 293 299 326 349 308 336 83 128 341 233 144 149 154 159 155 168 173
344 340 336 334 332 328 322 322 321 316 312 307 268 126 248 270 280 268 255 253 242 241 249 259 240 181 173 288 357 4 43 1 314 330 24 112 270 270 162 152 164 167 150 166 165
341 339 335 334 332 327 322 323 317 317 325 109 127 140 266 301 273 303 247 227 214 247 257 246 133 147 34 79 7 7 275 308 323 295 38 84 299 302 191 173 164 177 152 163 156
340 338 334 333 332 326 324 325 325 24 76 91 80 1 275 231 311 316 299 235 225 300 48 69 48 79 43 68 232 277 326 290 253 212 114 218 252 289 238 194 171 176 145 159 170
338 337 333 332 331 328 331 343 13 358 354 216 234 252 287 291 304 210 6 129 121 58 237 20 78 192 244 189 183 241 254 265 278 254 256 225 220 241 253 222 167 161 156 156 169
337 335 332 332 330 327 344 66 94 258 303 257 246 258 259 329 314 285 165 134 133 197 105 15 223 227 216 134 191 223 272 275 289 336 141 306 285 316 15 4 191 138 139 132 162
337 334 331 331 327 346 331 124 335 303 231 291 220 238 198 164 214 249 148 153 171 199 176 179 226 117 195 267 218 228 208 239 231 347 32 5 342 327 356 44 62 79 91 84 50
336 334 332 333 341 333 296 323 334 174 47 279 260 268 172 166 257 203 177 143 153 201 170 228 241 214 188 242 160 268 208 251 239 65 253 55 275 298 33 51 73 82 93 102 108
332 331 328 332 307 297 313 328 346 149 350 256 253 4 101 178 191 242 163 101 196 178 117 237 190 175 245 224 183 238 330 205 165 144 346 350 84 262 96 37 101 113 121 131 146
328 324 321 319 305 286 303 326 125 50 246 306 277 311 147 258 301 112 131 77 145 159 230 235 205 192 220 226 194 154 62 36 53 95 29 268 116 294 96 182 148 148 171 180 175
323 317 306 289 250 309 319 360 54 159 320 289 329 351 285 234 214 200 151 151 156 133 248 336 238 258 200 271 26 87 68 334 358 17 221 21 44 242 287 236 192 177 221 238 162
323 315 295 268 263 277 322 58 183 225 253 303 322 317 325 337 222 168 108 137 23 88 103 188 304 181 186 185 186 175 153 150 213 195 251 5 231 255 270 286 196 201 212 338 8
327 314 287 281 235 207 78 140 202 207 268 336 330 54 329 346 18 84 190 203 201 166 173 155 267 295 247 146 134 177 196 183 104 13 78 251 282 287 198 216 218 243 284 297 132
328 313 280 279 174 151 90 234 236 213 350 354 1 42 347 311 27 42 147 243 257 189 163 197 296 234 290 129 46 172 151 79 17 156 207 291 268 243 215 218 226 240 251 250 171
343 354 349 147 139 58 173 227 258 235 222 240 320 342 313 294 276 338 238 268 347 108 155 150 140 260 44 199 187 67 212 56 116 128 161 191 257 216 208 199 213 231 242 194 218
350 1 2 143 65 21 164 198 244 273 198 242 204 209 239 277 287 269 194 269 353 193 142 199 158 204 220 238 210 204 194 138 125 228 91 147 273 205 205 194 194 232 217 193 208
358 275 134 326 136 257 263 272 237 250 247 204 232 205 167 258 231 195 284 290 25 34 127 174 313 356 341 353 326 208 153 113 111 88 183 136 260 91 253 201 213 238 185 174 181
22 8 331 47 162 156 60 264 268 258 249 190 217 193 141 260 235 287 348 312 332 45 44 83 106 161 194 206 179 168 165 166 126 115 168 221 283 290 245 220 215 232 201 154 185
123 265 250 232 281 211 175 281 277 309 260 196 230 200 174 205 292 60 357 324 335 1 73 91 92 272 261 262 257 150 165 182 176 162 140 236 213 260 248 225 218 226 161 160 232
322 337 346 293 302 303 164 248 230 244 214 279 231 202 171 175 188 202 154 238 254 331 42 6 162 290 3 344 355 311 176 193 253 120 344 328 270 228 274 264 229 221 165 174 199
320 297 127 283 328 104 211 276 286 329 239 234 270 110 126 202 186 207 187 145 289 217 11 51 96 59 255 335 15 342 286 195 145 142 141 183 242 332 284 245 250 234 186 197 197